TimeMDT,TemperatureF,Dew PointF,Humidity,Sea Level PressureIn,VisibilityMPH,Wind Direction,Wind SpeedMPH,Gust SpeedMPH,PrecipitationIn,Events,Conditions,WindDirDegrees,DateUTC
12:54 AM,59.0,45.0,60,29.96,10.0,Calm,Calm,-,N/A,,Clear,0,2013-07-20 06:54:00
1:54 AM,55.0,45.0,69,29.97,10.0,ESE,6.9,-,N/A,,Clear,110,2013-07-20 07:54:00
2:54 AM,52.0,46.0,80,29.99,10.0,North,5.8,-,N/A,,Clear,10,2013-07-20 08:54:00
3:54 AM,52.0,45.0,77,29.99,10.0,Calm,Calm,-,N/A,,Clear,0,2013-07-20 09:54:00
4:54 AM,52.0,45.0,77,29.98,10.0,Calm,Calm,-,N/A,,Clear,0,2013-07-20 10:54:00
5:54 AM,50.0,45.0,83,29.99,10.0,SE,4.6,-,N/A,,Clear,140,2013-07-20 11:54:00
6:54 AM,55.0,46.0,72,29.96,10.0,South,6.9,-,N/A,,Clear,190,2013-07-20 12:54:00
7:54 AM,60.1,46.9,62,29.97,10.0,Calm,Calm,-,N/A,,Clear,0,2013-07-20 13:54:00
8:54 AM,66.0,48.0,52,29.96,10.0,Calm,Calm,-,N/A,,Clear,0,2013-07-20 14:54:00
9:54 AM,72.0,50.0,46,29.95,10.0,Calm,Calm,-,N/A,,Clear,0,2013-07-20 15:54:00
10:54 AM,75.0,46.0,36,29.95,10.0,Variable,3.5,-,N/A,,Clear,0,2013-07-20 16:54:00
11:54 AM,79.0,46.9,32,29.92,10.0,East,5.8,-,N/A,,Clear,80,2013-07-20 17:54:00
12:54 PM,80.1,46.9,31,29.90,10.0,Variable,5.8,-,N/A,,Clear,0,2013-07-20 18:54:00
1:54 PM,82.0,46.9,29,29.89,10.0,ENE,4.6,-,N/A,,Partly Cloudy,70,2013-07-20 19:54:00
2:54 PM,82.0,43.0,25,29.88,10.0,Variable,3.5,-,N/A,,Partly Cloudy,0,2013-07-20 20:54:00
3:54 PM,84.0,43.0,24,29.86,10.0,NNW,4.6,-,N/A,,Partly Cloudy,330,2013-07-20 21:54:00
4:54 PM,84.9,43.0,23,29.84,10.0,East,4.6,-,N/A,,Clear,80,2013-07-20 22:54:00
5:54 PM,84.0,44.1,25,29.83,10.0,East,6.9,-,N/A,,Clear,90,2013-07-20 23:54:00
6:54 PM,82.9,46.0,27,29.81,10.0,North,5.8,-,N/A,,Clear,360,2013-07-21 00:54:00
7:54 PM,80.1,50.0,35,29.81,10.0,ENE,5.8,-,N/A,,Clear,70,2013-07-21 01:54:00
8:54 PM,73.0,51.1,46,29.80,10.0,ESE,6.9,-,N/A,,Clear,120,2013-07-21 02:54:00
9:54 PM,68.0,52.0,56,29.81,10.0,ESE,6.9,-,N/A,,Clear,120,2013-07-21 03:54:00
10:54 PM,66.9,51.1,57,29.79,10.0,ESE,9.2,-,N/A,,Clear,110,2013-07-21 04:54:00
11:54 PM,63.0,50.0,63,29.79,10.0,Calm,Calm,-,N/A,,Clear,0,2013-07-21 05:54:00